FW6293 Weather Reports


Display with metric or nautical units.
time (UTC)temp
F
wind
direction
speed
MPH
gust
MPH
rain 1hr
in
rain 24hr
in
rain mn
in
humidity
%
barometer
mb
20260506101501 64 289 2.0 10.0 0.00 0.00 0.00 75 1021.0
20260506100120 64 267 3.0 7.0 0.00 0.00 0.00 75 1021.0
20260506094601 64 240 1.0 4.0 0.00 0.00 0.00 75 1021.0
20260506093059 64 295 3.0 7.0 0.00 0.00 0.00 74 1021.0
20260506091659 64 286 2.0 7.0 0.00 0.00 0.00 74 1021.0
20260506090058 64 288 1.0 9.0 0.00 0.00 0.00 74 1021.0
20260506084622 64 284 1.0 10.0 0.00 0.00 0.00 73 1021.0
20260506083057 64 246 1.0 3.0 0.00 0.00 0.00 73 1021.0
20260506081600 64 219 0.0 4.0 0.00 0.00 0.00 72 1021.0
20260506073053 65 250 0.0 3.0 0.00 0.00 0.00 69 1021.0
20260506071553 65 300 1.0 5.0 0.00 0.00 0.00 69 1021.0
20260506061549 63 299 0.0 0.0 0.00 0.00 0.00 69 1021.0
20260506044634 64 226 1.0 6.0 0.00 0.00 0.00 65 1021.0
20260506043039 63 315 0.0 0.0 0.00 0.00 0.00 66 1021.0
20260506041537 63 317 0.0 0.0 0.00 0.00 0.00 65 1021.0
20260506040036 63 317 0.0 0.0 0.00 0.00 0.00 66 1021.0
20260506034602 63 317 0.0 0.0 0.00 0.00 0.00 66 1021.0
20260506033138 64 317 0.0 0.0 0.00 0.00 0.00 64 1021.0
20260506031535 66 317 0.0 2.0 0.00 0.00 0.00 62 1021.0
20260506030035 66 252 0.0 2.0 0.00 0.00 0.00 61 1021.0
20260506024534 67 276 1.0 7.0 0.00 0.00 0.00 59 1021.0
20260506023045 68 235 1.0 4.0 0.00 0.00 0.00 58 1021.0
20260506021534 68 174 0.0 4.0 0.00 0.00 0.00 57 1021.0
20260506020032 69 305 0.0 3.0 0.00 0.00 0.00 55 1021.0
20260506014533 69 9 1.0 5.0 0.00 0.00 0.00 54 1021.0
20260506013038 70 159 1.0 4.0 0.00 0.00 0.00 52 1021.0
20260506011532 71 202 1.0 5.0 0.00 0.00 0.00 51 1021.0
20260506010032 72 314 1.0 8.0 0.00 0.00 0.00 50 1021.0
20260506004548 72 292 1.0 5.0 0.00 0.00 0.00 48 1021.0
20260506003041 73 291 1.0 8.0 0.00 0.00 0.00 47 1021.0
20260506001529 74 177 2.0 6.0 0.00 0.00 0.00 47 1021.0
20260506000128 74 113 1.0 4.0 0.00 0.00 0.00 47 1021.0
20260505234541 75 185 2.0 9.0 0.00 0.00 0.00 47 1021.0
20260505233027 76 223 2.0 11.0 0.00 0.00 0.00 46 1021.0
20260505231527 76 259 1.0 10.0 0.00 0.00 0.00 46 1021.0
20260505230036 77 299 1.0 6.0 0.00 0.00 0.00 45 1021.0
20260505224525 78 275 1.0 7.0 0.00 0.00 0.00 45 1021.0
20260505223025 79 307 3.0 8.0 0.00 0.00 0.00 43 1021.0
20260505221525 79 317 2.0 10.0 0.00 0.00 0.00 40 1021.0
20260505220033 79 275 8.0 13.0 0.00 0.00 0.00 37 1021.0
20260505214531 80 291 8.0 16.0 0.00 0.00 0.00 38 1021.0
20260505213025 81 283 9.0 18.0 0.00 0.00 0.00 35 1021.0
20260505211522 81 306 8.0 17.0 0.00 0.00 0.00 36 1021.0
20260505210020 81 296 7.0 20.0 0.00 0.00 0.00 35 1021.0
20260505204519 81 288 7.0 17.0 0.00 0.00 0.00 43 1021.0
20260505203019 81 292 6.0 19.0 0.00 0.00 0.00 37 1021.0
20260505201522 81 313 14.0 21.0 0.00 0.00 0.00 36 1021.0
20260505200016 81 286 11.0 26.0 0.00 0.00 0.00 36 1021.0
20260505194529 81 270 12.0 20.0 0.00 0.00 0.00 36 1021.0
20260505193031 81 292 10.0 17.0 0.00 0.00 0.00 40 1021.0
20260505191511 81 267 7.0 19.0 0.00 0.00 0.00 40 1021.0
20260505190012 81 313 4.0 21.0 0.00 0.00 0.00 39 1021.0
20260505184509 81 293 9.0 20.0 0.00 0.00 0.00 43 1021.0
20260505183012 81 265 11.0 16.0 0.00 0.00 0.00 39 1021.0
20260505181505 80 314 10.0 16.0 0.00 0.00 0.00 42 1021.0
20260505180004 80 298 6.0 21.0 0.00 0.00 0.00 40 1021.0
20260505174502 79 309 13.0 20.0 0.00 0.00 0.00 42 1021.0
20260505173001 79 309 8.0 22.0 0.00 0.00 0.00 46 1021.0
20260505171559 79 312 14.0 21.0 0.00 0.00 0.00 43 1021.0
20260505170137 79 302 13.0 20.0 0.00 0.00 0.00 43 1021.0
20260505164556 78 308 14.0 23.0 0.00 0.00 0.00 43 1021.0
20260505163055 78 294 12.0 17.0 0.00 0.00 0.00 46 1021.0
20260505161601 78 300 12.0 18.0 0.00 0.00 0.00 49 1021.0
20260505153056 77 304 12.0 21.0 0.00 0.00 0.00 49 1021.0
20260505151550 76 315 16.0 24.0 0.00 0.00 0.00 47 1021.0
20260505124516 64 300 3.0 8.0 0.00 0.00 0.00 67 1021.0
20260505123010 63 301 2.0 5.0 0.00 0.00 0.00 68 1021.0
20260505121506 61 296 2.0 5.0 0.00 0.00 0.00 73 1021.0
20260505120100 59 298 1.0 3.0 0.00 0.00 0.00 78 1021.0
20260505114615 58 33 1.0 2.0 0.00 0.00 0.00 79 1021.0
20260505113059 55 38 1.0 2.0 0.00 0.00 0.00 82 1021.0
20260505111608 54 134 0.0 0.0 0.00 0.00 0.00 82 1021.0